Stations météo

Publicité
Saarbrücken-Ensheim, Allemagne (10708): Température de l'air & dewpoint: 13.03.2019 06:00:00 - 19.03.2019 06:00:00 (CET)Saarbrücken-Ensheim, Allemagne (10708): Température de l'air 5cm & Température de l'air -5cm: 13.03.2019 06:00:00 - 19.03.2019 06:00:00 (CET)Saarbrücken-Ensheim, Allemagne (10708): Température de l'air -20cm & Température de l'air -100cm: 13.03.2019 06:00:00 - 19.03.2019 06:00:00 (CET)Saarbrücken-Ensheim, Allemagne (10708): Vitesse du vent & gusts: 13.03.2019 06:00:00 - 19.03.2019 06:00:00 (CET)Saarbrücken-Ensheim, Allemagne (10708): Direction du vent: 13.03.2019 06:00:00 - 19.03.2019 06:00:00 (CET)Saarbrücken-Ensheim, Allemagne (10708): reduced air pressure: 13.03.2019 06:00:00 - 19.03.2019 06:00:00 (CET)Saarbrücken-Ensheim, Allemagne (10708): visibility: 13.03.2019 06:00:00 - 19.03.2019 06:00:00 (CET)Saarbrücken-Ensheim, Allemagne (10708): Ensoleillement: 13.03.2019 06:00:00 - 19.03.2019 06:00:00 (CET)Saarbrücken-Ensheim, Allemagne (10708): Quantités de précipitations: 13.03.2019 06:00:00 - 19.03.2019 06:00:00 (CET)
Date & Time tt [°C] td [°C] tt 5cm [°C] tt -5cm [°C] tt -20cm [°C] tt -100cm [°C] ff [km/h] ff [knt] fx [km/h] fx [knt] dd ppp [hPa] vv [km] sd [min] rr [mm]
19.03.2019 06:00:00 -0,2 -0,6 -3,0 1,6 4,7 7,0 3 2 5 3 SE 1027,4 9 0 0,0
19.03.2019 05:00:00 -0,3 -0,8 -3,2 1,8 4,9 7,0 2 1 5 3 - 1026,7 5 0 0,0
19.03.2019 04:00:00 0,3 -0,5 -2,1 2,3 5,1 7,0 2 1 4 2 NNW 1026,2 15 0 0,0
19.03.2019 03:00:00 1,3 0,6 0,1 3,0 5,3 7,0 2 1 2 1 NW 1025,7 10 0 0,0
19.03.2019 02:00:00 1,6 0,7 0,7 3,2 5,4 7,0 3 2 4 2 E 1025,9 15 0 0,0
19.03.2019 01:00:00 1,9 0,9 0,9 3,1 5,7 7,0 2 1 9 5 - 1025,5 10 0 0,0
19.03.2019 00:00:00 1,2 0,3 -0,8 3,2 5,9 7,0 2 1 5 3 - 1025,2 10 0 0,0
18.03.2019 23:00:00 1,9 0,4 -0,7 3,9 6,2 7,0 4 2 11 6 E 1024,9 10 0 0,0
18.03.2019 22:00:00 3,0 0,7 0,7 4,6 6,4 7,0 5 3 8 4 WSW 1024,6 40 0 0,0
18.03.2019 21:00:00 3,4 1,2 2,0 5,0 6,7 7,0 5 3 14 8 W 1024,0 10 0 0,0
18.03.2019 20:00:00 4,0 0,8 1,8 5,5 7,0 7,0 9 5 13 7 WSW 1023,4 10 0 0,0
18.03.2019 19:00:00 3,6 1,8 1,0 7,1 7,2 7,0 6 3 8 4 SSW 1022,9 50 13 0,0
18.03.2019 18:00:00 4,3 1,6 4,2 8,5 7,1 7,0 16 9 44 24 NW 1022,2 10 28 0,3
18.03.2019 17:00:00 7,7 -1,9 8,7 10,2 6,9 7,1 16 9 27 15 W 1020,9 40 59 0,0
18.03.2019 16:00:00 8,3 -0,9 10,7 10,0 6,5 7,1 18 10 31 17 W 1020,7 10 33 0,0
18.03.2019 15:00:00 7,7 -0,7 9,0 10,3 6,0 7,1 17 9 35 19 W 1020,5 50 41 0,0
18.03.2019 14:00:00 6,8 1,9 8,4 9,3 5,5 7,1 9 5 28 15 W 1020,7 40 26 0,1
18.03.2019 13:00:00 5,9 1,1 6,3 8,1 5,0 7,0 13 7 25 13 WNW 1021,1 10 22 0,0
18.03.2019 12:00:00 4,2 1,8 5,2 5,6 4,7 7,0 13 7 22 12 W 1021,5 10 0 0,0
18.03.2019 11:00:00 3,7 2,4 4,4 4,5 4,6 7,0 11 6 22 12 WSW 1021,1 10 0 1,0
18.03.2019 10:00:00 4,0 0,9 4,6 4,3 4,4 7,0 15 8 21 11 SW 1020,3 10 0 0,0
18.03.2019 09:00:00 3,2 0,6 3,6 3,4 4,3 7,0 16 9 23 12 WSW 1019,8 10 1 0,0
18.03.2019 08:00:00 2,7 0,3 2,7 2,5 4,2 7,0 15 8 31 17 W 1019,4 35 0 0,0
18.03.2019 07:00:00 2,1 0,1 1,6 2,1 4,3 7,0 16 9 25 14 W 1018,7 10 0 0,0
18.03.2019 06:00:00 1,9 -0,1 1,4 1,7 4,3 7,0 18 10 33 18 WSW 1018,1 10 0 0,0
18.03.2019 05:00:00 1,6 -0,1 0,9 1,4 4,5 7,0 16 9 29 16 WSW 1017,4 10 0 0,0
18.03.2019 04:00:00 1,3 -0,3 0,5 1,4 4,6 7,0 20 11 27 14 WSW 1017,1 35 0 0,0
18.03.2019 03:00:00 0,9 -0,6 -0,3 1,5 4,8 7,0 15 8 24 13 WSW 1017,0 10 0 0,0
18.03.2019 02:00:00 1,0 -0,5 -0,5 1,6 5,0 7,0 16 9 22 12 SW 1016,9 40 0 0,0
18.03.2019 01:00:00 1,2 -0,3 -0,2 1,6 5,3 7,0 16 9 21 11 SW 1016,6 10 0 0,0
18.03.2019 00:00:00 1,7 0,1 -0,5 2,0 5,6 7,0 13 7 22 12 WSW 1016,3 10 0 0,0
17.03.2019 23:00:00 2,2 -0,3 0,3 2,5 5,9 7,0 15 8 24 13 WSW 1016,1 50 0 0,0
17.03.2019 22:00:00 2,2 0,0 0,0 3,0 6,3 7,0 10 5 23 13 SW 1015,6 50 0 0,0
17.03.2019 21:00:00 2,5 -0,2 0,6 3,8 6,6 7,0 18 10 35 19 WSW 1014,5 50 0 0,0
17.03.2019 20:00:00 3,5 -0,4 1,7 4,7 6,9 7,0 22 12 34 18 W 1013,6 10 0 0,0
17.03.2019 19:00:00 4,1 0,4 2,2 5,8 7,1 7,0 24 13 40 21 WSW 1012,0 10 26 0,0
17.03.2019 18:00:00 4,9 1,5 3,9 7,4 7,1 7,0 26 14 48 26 W 1011,0 10 32 0,0
17.03.2019 17:00:00 4,9 1,7 4,3 8,3 7,0 7,0 28 15 56 30 W 1010,0 10 14 0,4
17.03.2019 16:00:00 6,7 2,5 7,0 8,5 6,7 7,0 24 13 49 27 W 1009,0 10 15 0,1
17.03.2019 15:00:00 6,5 3,3 7,0 8,0 6,6 7,0 26 14 36 20 WSW 1008,4 10 7 0,0
17.03.2019 14:00:00 4,8 2,6 4,9 6,7 6,5 7,0 17 9 35 19 WSW 1008,4 50 0 0,1
17.03.2019 13:00:00 4,4 2,7 4,3 6,6 6,5 7,0 24 13 51 27 W 1008,3 8 0 2,4
17.03.2019 12:00:00 6,2 4,3 5,9 7,3 6,4 7,0 37 20 57 31 W 1006,6 7 0 2,0
17.03.2019 11:00:00 8,7 4,5 8,4 7,2 6,1 7,0 28 15 49 26 SW 1005,3 10 0 0,0
17.03.2019 10:00:00 8,6 4,0 8,6 6,9 5,9 7,0 32 18 52 28 SW 1005,1 40 0 0,0
17.03.2019 09:00:00 8,3 3,4 8,3 6,0 5,7 7,0 33 18 49 26 WSW 1005,2 40 0 0,0
17.03.2019 08:00:00 8,0 3,1 7,5 4,9 5,7 7,0 34 18 53 28 SW 1005,1 10 3 0,0
17.03.2019 07:00:00 7,4 2,8 6,5 4,0 5,7 7,0 26 14 - - WSW 1005,0 40 0 0,0
17.03.2019 06:00:00 6,8 2,1 4,8 3,6 5,9 6,9 18 10 28 15 SW 1005,2 10 0 0,0
17.03.2019 05:00:00 7,8 2,6 5,6 3,7 6,0 6,9 22 12 32 17 WSW 1004,9 10 0 0,0
17.03.2019 04:00:00 7,1 2,8 5,0 3,7 6,2 6,9 11 6 35 19 SSW 1005,4 10 0 0,0
17.03.2019 03:00:00 7,7 3,0 4,5 3,7 6,4 6,9 13 7 28 15 SW 1006,1 10 0 0,0
17.03.2019 02:00:00 6,1 4,0 2,7 4,1 6,6 6,9 9 5 19 10 SW 1007,1 10 0 0,0
17.03.2019 01:00:00 7,5 4,6 4,3 4,7 6,8 6,9 15 8 22 12 SSW 1007,2 10 0 0,0
17.03.2019 00:00:00 7,5 4,6 5,4 4,9 7,1 6,9 13 7 23 13 SSW 1008,1 10 0 0,0
16.03.2019 23:00:00 7,9 4,7 4,7 5,2 7,3 6,9 11 6 22 12 SSW 1008,6 10 0 0,0
16.03.2019 22:00:00 8,7 4,4 5,8 5,7 7,6 6,9 16 9 30 16 WSW 1009,3 10 0 0,0
16.03.2019 21:00:00 8,9 4,4 6,4 6,2 7,8 6,9 22 12 31 17 WSW 1009,5 10 0 0,0
16.03.2019 20:00:00 8,8 4,5 6,6 6,9 8,1 6,9 18 10 27 15 WSW 1010,0 10 0 0,0
16.03.2019 19:00:00 9,2 4,0 7,2 8,0 8,2 6,9 21 11 41 22 WSW 1010,4 10 41 0,0
16.03.2019 18:00:00 10,5 4,7 9,5 9,1 8,2 6,9 26 14 38 20 WSW 1010,9 10 9 0,0
16.03.2019 17:00:00 10,2 4,6 10,3 9,8 8,1 6,9 26 14 41 22 WSW 1011,8 10 3 0,0
16.03.2019 16:00:00 9,8 4,6 10,0 9,9 8,0 6,9 29 16 40 22 WSW 1012,6 10 1 0,0
16.03.2019 15:00:00 9,5 4,5 9,9 9,8 7,8 6,9 34 18 54 29 WSW 1013,4 10 2 0,0
16.03.2019 14:00:00 8,6 4,7 8,3 9,6 7,7 6,9 34 18 53 28 WSW 1014,8 10 3 0,0
16.03.2019 13:00:00 8,1 5,4 7,9 9,2 7,5 6,9 39 21 59 32 WSW 1015,3 10 0 0,2
16.03.2019 12:00:00 8,1 6,4 8,0 8,7 7,4 6,9 37 20 50 27 WSW 1015,5 6 0 0,0
16.03.2019 11:00:00 8,4 5,9 8,0 8,1 7,4 6,9 26 14 55 30 SW 1015,7 10 0 0,0
16.03.2019 10:00:00 8,5 6,1 8,0 7,9 7,4 6,9 29 16 49 27 WSW 1015,7 10 0 0,0
16.03.2019 09:00:00 8,6 5,7 8,4 7,7 7,4 6,9 37 20 61 33 WSW 1015,6 10 0 0,0
16.03.2019 08:00:00 8,6 5,7 7,8 7,7 7,4 6,9 41 22 61 33 WSW 1015,6 10 0 0,0
16.03.2019 07:00:00 8,9 6,3 8,1 7,9 7,5 6,9 39 21 59 32 WSW 1015,2 10 0 0,0
16.03.2019 06:00:00 9,2 7,2 8,3 8,0 7,5 6,9 35 19 53 29 WSW 1014,8 13 0 0,1
16.03.2019 05:00:00 9,4 7,8 8,6 8,1 7,4 6,9 31 17 55 30 WSW 1014,5 15 0 0,0
16.03.2019 04:00:00 9,3 8,3 8,8 8,2 7,4 6,9 34 18 51 27 WSW 1014,2 4,5 0 0,3
16.03.2019 03:00:00 9,5 8,3 8,9 8,2 7,4 6,9 34 18 55 30 WSW 1014,6 5 0 0,0
16.03.2019 02:00:00 9,8 8,2 9,0 8,2 7,4 6,9 35 19 56 30 WSW 1014,5 10 0 0,1
16.03.2019 01:00:00 9,6 8,3 9,0 8,3 7,4 6,9 34 18 52 28 WSW 1014,5 10 0 0,0
16.03.2019 00:00:00 9,7 8,3 9,0 8,3 7,3 6,9 37 20 61 33 WSW 1014,4 10 0 0,1
15.03.2019 23:00:00 9,8 8,6 9,2 8,4 7,3 6,9 39 21 55 30 WSW 1014,2 7 0 0,3
15.03.2019 22:00:00 9,9 8,7 9,3 8,4 7,2 6,9 37 20 61 33 WSW 1013,5 7 0 0,4
15.03.2019 21:00:00 9,8 8,8 9,2 8,4 7,2 6,9 35 19 65 35 WSW 1012,8 5 0 0,4
15.03.2019 20:00:00 9,8 8,8 9,3 8,4 7,1 6,9 39 21 59 32 WSW 1012,2 5 0 0,4
15.03.2019 19:00:00 10,0 8,8 9,4 8,5 7,1 6,9 37 20 55 30 WSW 1011,8 4,0 0 0,1
15.03.2019 18:00:00 10,3 8,7 9,5 8,5 7,0 6,9 39 21 57 31 WSW 1011,4 8 0 0,0
15.03.2019 17:00:00 10,0 8,8 9,4 8,6 6,9 6,9 37 20 59 32 WSW 1011,3 8 0 0,1
15.03.2019 16:00:00 10,0 8,5 9,3 8,6 6,7 6,9 41 22 57 31 WSW 1011,4 8 0 0,1
15.03.2019 15:00:00 9,8 8,6 9,4 8,7 6,5 6,9 36 19 61 33 W 1011,4 5 0 0,3
15.03.2019 14:00:00 10,0 8,6 9,5 8,4 6,3 6,9 37 20 66 35 W 1011,2 6 0 0,1
15.03.2019 13:00:00 9,9 8,4 9,3 8,1 6,1 6,9 44 24 66 35 W 1010,8 10 0 0,4
15.03.2019 12:00:00 9,7 8,5 9,3 7,7 5,8 6,9 37 20 54 29 W 1010,2 6 0 0,2
15.03.2019 11:00:00 9,6 8,3 9,1 7,2 5,6 6,9 34 18 52 28 W 1009,9 10 0 0,3
15.03.2019 10:00:00 8,7 7,7 8,3 6,4 5,5 6,9 31 17 46 25 W 1009,5 8 0 0,8
15.03.2019 09:00:00 7,2 6,4 6,9 5,8 5,4 6,9 23 13 44 24 WSW 1009,6 8 0 1,3
15.03.2019 08:00:00 6,5 5,5 6,1 5,5 5,3 6,9 26 14 36 19 SW 1010,1 8 0 1,8
15.03.2019 07:00:00 6,6 5,7 6,1 5,2 5,2 6,9 21 11 31 17 SW 1010,6 9 0 0,7
15.03.2019 06:00:00 6,5 5,4 5,9 5,0 5,2 6,9 18 10 35 19 SW 1010,9 10 0 0,5
15.03.2019 05:00:00 6,8 4,9 6,0 4,8 5,1 6,9 24 13 35 19 WSW 1011,2 25 0 0,0
15.03.2019 04:00:00 6,6 4,6 5,7 4,5 5,1 6,9 22 12 31 17 WSW 1011,4 10 0 0,0
15.03.2019 03:00:00 6,3 4,4 4,9 4,2 5,1 6,9 19 10 29 16 W 1011,6 30 0 0,0
15.03.2019 02:00:00 6,5 4,8 5,7 4,2 5,1 7,0 18 10 26 14 WSW 1011,5 30 0 0,0
15.03.2019 01:00:00 5,9 3,7 4,2 3,7 5,2 7,0 16 9 26 14 WSW 1011,2 10 0 0,0
15.03.2019 00:00:00 6,2 3,4 4,1 3,9 5,4 7,0 21 11 26 14 W 1010,4 10 0 0,0
14.03.2019 23:00:00 6,4 3,7 4,4 4,4 5,4 7,0 21 11 37 20 W 1009,8 10 0 0,0
14.03.2019 22:00:00 6,9 3,9 5,4 4,6 5,5 7,0 21 12 38 21 W 1008,3 40 0 0,0
14.03.2019 21:00:00 6,2 4,3 4,6 4,7 5,6 7,0 29 16 41 22 W 1007,1 10 0 0,0
14.03.2019 20:00:00 6,0 3,8 4,8 5,0 5,6 7,0 24 13 37 20 W 1006,1 10 0 0,0
14.03.2019 19:00:00 6,7 3,5 5,4 5,6 5,5 7,0 28 15 54 29 W 1004,7 10 0 4,2
14.03.2019 18:00:00 7,4 6,4 6,9 5,6 5,4 7,0 37 20 54 29 W 1003,3 5 0 2,5
14.03.2019 17:00:00 5,9 5,1 5,6 5,2 5,4 7,0 34 18 57 31 SW 1003,2 5 0 0,8
14.03.2019 16:00:00 4,6 3,7 4,5 5,0 5,4 7,0 39 21 57 31 SW 1004,0 5 0 1,0
14.03.2019 15:00:00 4,1 2,7 3,8 4,9 5,4 7,0 35 19 64 35 SW 1005,0 8 0 1,7
14.03.2019 14:00:00 4,2 2,5 3,8 5,0 5,3 7,0 41 22 66 35 WSW 1006,2 10 0 1,8
14.03.2019 13:00:00 4,6 3,0 4,2 5,0 5,3 7,0 38 20 61 33 WSW 1007,0 12 0 1,4
14.03.2019 12:00:00 4,2 2,7 4,0 4,9 5,2 7,0 42 23 64 34 SW 1008,8 9 0 1,2
14.03.2019 11:00:00 4,0 2,5 3,8 4,7 5,2 7,0 35 19 62 34 SW 1010,1 13 0 0,6
14.03.2019 10:00:00 4,0 2,6 3,7 4,5 5,2 7,0 37 20 52 28 SW 1011,6 9 0 0,8
14.03.2019 09:00:00 4,2 2,4 3,7 4,4 5,2 7,0 31 17 51 27 SW 1012,4 10 0 0,3
14.03.2019 08:00:00 4,4 1,9 3,9 4,2 5,2 7,0 34 18 50 27 WSW 1013,2 10 0 0,0
14.03.2019 07:00:00 4,2 1,8 3,5 4,1 5,2 7,0 28 15 39 21 SW 1013,8 10 0 0,0
14.03.2019 06:00:00 4,3 1,7 3,7 4,2 5,3 7,0 27 15 41 22 WSW 1014,8 20 0 0,0
14.03.2019 05:00:00 4,5 2,0 3,8 4,2 5,3 7,0 28 15 42 23 WSW 1015,2 10 0 0,0
14.03.2019 04:00:00 4,6 2,2 3,9 4,2 5,3 7,0 24 13 39 21 WSW 1015,4 10 0 0,0
14.03.2019 03:00:00 4,7 2,4 3,9 4,2 5,4 7,0 21 11 35 19 W 1015,6 10 0 0,0
14.03.2019 02:00:00 4,5 2,3 3,8 4,0 5,4 7,0 22 12 35 19 W 1015,4 30 0 0,0
14.03.2019 01:00:00 4,0 2,3 3,3 3,9 5,5 7,0 24 13 35 19 W 1015,2 10 0 0,0
14.03.2019 00:00:00 4,1 2,5 3,3 4,2 5,7 7,0 22 12 36 19 W 1014,7 10 0 0,0
13.03.2019 23:00:00 3,8 2,7 3,3 4,2 5,8 7,0 24 13 34 18 W 1014,2 8 0 0,5
13.03.2019 22:00:00 3,8 2,3 3,2 4,6 5,9 7,0 19 10 41 22 W 1013,7 30 0 0,7
13.03.2019 21:00:00 4,5 3,4 4,0 5,0 6,0 7,0 28 15 46 25 WNW 1013,4 4,5 0 1,6
13.03.2019 20:00:00 4,7 2,7 4,0 5,1 6,1 7,0 22 12 44 24 WSW 1011,8 10 0 0,0
13.03.2019 19:00:00 4,4 2,1 3,8 5,3 6,3 7,0 25 14 42 23 WSW 1011,7 30 0 0,0
13.03.2019 18:00:00 3,5 2,4 3,1 5,9 6,4 7,0 31 17 62 34 WNW 1011,9 10 0 2,0
13.03.2019 17:00:00 6,3 1,5 5,5 6,8 6,3 7,0 31 17 53 28 WSW 1010,6 25 9 0,0
13.03.2019 16:00:00 6,3 1,5 6,9 6,6 6,3 7,0 36 19 56 30 WSW 1011,2 30 0 0,0
13.03.2019 15:00:00 5,6 1,8 5,5 7,1 6,1 7,0 34 18 59 32 WSW 1011,6 10 0 0,0
13.03.2019 14:00:00 4,7 1,2 4,5 7,5 5,9 7,0 39 21 67 36 WSW 1012,0 10 4 0,4
13.03.2019 13:00:00 5,7 0,4 5,3 7,3 5,7 7,0 41 22 66 36 WSW 1012,1 10 5 0,0
13.03.2019 12:00:00 5,5 0,8 5,9 6,6 5,5 7,0 36 20 66 36 WSW 1012,6 30 11 0,1
13.03.2019 11:00:00 4,0 1,0 3,5 5,2 5,4 7,0 29 16 57 31 WSW 1013,4 10 2 0,1
13.03.2019 10:00:00 3,9 1,3 4,1 5,1 5,3 7,0 29 16 53 29 WSW 1013,5 10 10 0,3
13.03.2019 09:00:00 3,9 0,5 3,7 4,3 5,3 7,0 29 16 51 27 SW 1013,4 10 10 0,0
13.03.2019 08:00:00 4,1 0,0 4,3 3,7 5,3 7,0 34 18 54 29 SW 1013,4 10 12 0,0
13.03.2019 07:00:00 3,7 0,0 2,8 3,7 5,4 7,0 33 18 51 27 WSW 1013,2 40 0 0,0
13.03.2019 06:00:00 4,0 0,0 3,4 3,8 5,5 7,0 27 14 55 30 WSW 1013,2 40 0 0,0

tt = Température de l'air
td = dewpoint
tt 5cm = Température de l'air 5cm
tt -5cm = Température de l'air -5cm
tt -20cm = Température de l'air -20cm
tt -100cm = Température de l'air -100cm
ff = Vitesse du vent
fx = gusts
dd = Direction du vent
ppp = reduced air pressure
vv = visibility
sd = Ensoleillement
rr = Quantités de précipitations

stations d'obs. à proximité